Tracking 25734 objects as of 26-May-2022
HD Live streaming from Space Station
objects crossing your sky now

COSMOS 2251 DEB

Track COSMOS 2251 DEB now!
10-day predictions


NORAD ID: 37500
Int'l Code: 1993-036BMD
Perigee: 408.0 km
Apogee: 650.5 km
Inclination: 74.0 °
Period: 95.1 minutes
Semi major axis: 6900 km
RCS: 0.0001 m2 (small)
Launch date: June 16, 1993
Source: Commonwealth of Independent States (former USSR) (CIS)
Launch site: PLESETSK MISSILE AND SPACE COMPLEX (PKMTR)

Note: This is SATELLITE DEBRIS
aabbcc
Your satellite tracking list
Your tracking list is empty




NASA's NSSDC Master Catalog

Two Line Element Set (TLE):
1 37500U 93036BMD 22145.72956252  .00006246  00000-0  23074-3 0  9995
2 37500  73.9680 151.2312 0175714 292.0408  66.2203 15.14621645698710
Source of the keplerian elements: AFSPC